Showing default

OV2-5, 3428

Orbit data source: Space-Track

OV2-5, 3428 is a payload satellite owned by SAMSO (US) in GEO that was launched on Thu, 26 Sep 1968 UTC via a TITAN IIIC launch vehicle from the Air Force Eastern Test Range (AFETR). Payload-class satellites include a variety of spacecraft equipped with specific instruments for various scientific and technological missions. These include communications satellites like Starlink; space stations such as the ISS; scientific satellites like the Hubble; Earth observation satellites from companies like Planet Labs, Umbra, and HawkEye 360; GPS; miniature CubeSats for education and research; and military/defense satellites.

Not visible in the next 10 days
Identifier
3428, 1968-081A
Orbit
GEO
Country
Flag of USUS
Related business
Manufacturer
Northrop
Mission
Non-operational spacecraft
Bus & Motor
OV2, Unknown motor
Mass
~200 kg wet, ~200 kg dry
Launch date (UTC)
1968-09-26 (58 years ago)
Launch vehicle
TITAN IIIC
Launch site
Air Force Eastern Test Range (AFETR)
Object type
Payload
Rocket body
Debris
Shape & HBR
Unknown
Radar Cross Section
Medium (>0.1 m² and <1 m²)

Expand to show TLE details & history
Last TLE update: 10 hours ago

TLE from 10 hours ago
0 OV2-5
1 03428U 68081A   26105.16546648 -.00000056  00000-0  00000-0 0  9996
2 03428   1.8759  48.9169 0080843 284.3043 332.2019  1.01559931120415
Epoch: 2026-04-15T03:58Z
TLE epoch observation values (Epoch: 2026-04-15T03:58:16.303Z)
Latitude
-1.7988°
Longitude
42.07111°
Altitude
35,131.613 km
Speed
3.11 km/s
True Right ascension
20h 19m 52s
True Declination
-1° 47' 49"
Sunlit
Object was in daylight at epoch
Visualization orbit readout
Latitude
Unknown
Longitude
Unknown
Altitude
Unknown
Speed
Unknown
Apparent Right ascension
Unknown
Apparent Declination
Unknown
Sunlit
N/A
Visualization observer readout
Local Sidereal Time
20:37:19
Azimuth
Unknown
Elevation
Unknown
Doppler factor
Unknown
Orbital elements
Apogee altitude
35,768.373 km
Perigee altitude
35,092.388 km
Semi-major axis
41,808.518 km
Eccentricity
0.00808
Inclination
1.8759°
RAAN
48.9169°
Arg. of periapsis
284.3043°
True anomaly
331.76598°
Mean anomaly
332.2019°
Eccentric anomaly
331.98433°
Mean motion
0.25389 °/min
Orbital period
1,417.94 mins
BSTAR
0
Loading maneuver chart data...
Computing Atmospheric mass density...

Documentation

Showing up to 5 results
|